"read_dt","SO2 (ppb)","flags","PMT voltage (V)","lamp voltage (V)","lamp intensity (Hz)","internal temp (C)","react chamber temp (C)","sample flow (l/min)","pres (mmHg)","SO2 bkg (ppb)","SO2 coefficient"
2014-02-28 00:00:00,5508E-2,5C000490,-0724,1338,7216,021.8,045.1,0.130,768.0,01.15,0.508
2014-02-28 00:01:00,5481E-2,5C000490,-0724,1340,7221,021.8,045.1,0.130,768.0,01.15,0.508
2014-02-28 00:02:00,5516E-2,5C000490,-0724,1341,7157,021.8,045.1,0.130,768.0,01.15,0.508
2014-02-28 00:03:00,5579E-2,5C000490,-0724,1343,7234,021.8,045.1,0.130,768.0,01.15,0.508
2014-02-28 00:04:00,5491E-2,5C000490,-0724,1343,7131,021.8,045.1,0.130,768.0,01.15,0.508
2014-02-28 00:05:00,5508E-2,5C000490,-0724,1345,7145,021.8,045.1,0.129,768.0,01.15,0.508
2014-02-28 00:06:00,5549E-2,5C000490,-0724,1346,6986,021.8,045.1,0.130,768.1,01.15,0.508
2014-02-28 00:07:00,5580E-2,5C000490,-0724,1349,7101,021.8,045.1,0.129,768.0,01.15,0.508
2014-02-28 00:08:00,5595E-2,5C000490,-0724,1351,7018,021.8,045.1,0.130,768.0,01.15,0.508
2014-02-28 00:09:00,5535E-2,5C000490,-0724,1352,7056,021.8,045.1,0.130,768.0,01.15,0.508
2014-02-28 00:10:00,5505E-2,5C000490,-0724,1350,6987,021.8,045.1,0.130,768.0,01.15,0.508
2014-02-28 00:11:00,5558E-2,5C000490,-0724,1349,7073,021.8,045.1,0.130,768.0,01.15,0.508
2014-02-28 00:12:00,5603E-2,5C000490,-0724,1350,7114,021.8,045.1,0.129,768.0,01.15,0.508
2014-02-28 00:13:00,5527E-2,5C000490,-0724,1351,7126,021.8,045.1,0.130,768.0,01.15,0.508
2014-02-28 00:14:00,5582E-2,5C000490,-0724,1352,7028,021.8,045.1,0.130,768.0,01.15,0.508
2014-02-28 00:15:00,5595E-2,5C000490,-0724,1352,7077,021.8,045.1,0.130,767.9,01.15,0.508
2014-02-28 00:16:00,5514E-2,5C000490,-0724,1353,7036,021.8,045.1,0.130,768.0,01.15,0.508
2014-02-28 00:17:00,5564E-2,5C000490,-0724,1354,7008,021.8,045.1,0.130,767.9,01.15,0.508
2014-02-28 00:18:00,5612E-2,5C000490,-0724,1356,6952,021.8,045.1,0.129,767.9,01.15,0.508
2014-02-28 00:19:00,5543E-2,5C000490,-0724,1358,6943,021.8,045.1,0.129,767.9,01.15,0.508
2014-02-28 00:20:00,5583E-2,5C000490,-0724,1359,6953,021.8,045.1,0.129,768.0,01.15,0.508
2014-02-28 00:21:00,5520E-2,5C000490,-0724,1358,6978,021.8,045.1,0.129,768.0,01.15,0.508
2014-02-28 00:22:00,5546E-2,5C000490,-0724,1358,6894,021.8,045.1,0.130,767.9,01.15,0.508
2014-02-28 00:23:00,5548E-2,5C000490,-0724,1359,6894,021.8,045.1,0.129,767.9,01.15,0.508
2014-02-28 00:24:00,5584E-2,5C000490,-0724,1360,7067,021.8,045.1,0.129,767.8,01.15,0.508
2014-02-28 00:25:00,5558E-2,5C000490,-0724,1361,6921,021.8,045.1,0.130,767.9,01.15,0.508
2014-02-28 00:26:00,5519E-2,5C000490,-0724,1362,6876,021.8,045.1,0.129,767.9,01.15,0.508
2014-02-28 00:27:00,5556E-2,5C000490,-0724,1363,6801,021.8,045.1,0.129,768.0,01.15,0.508
2014-02-28 00:28:00,5608E-2,5C000490,-0724,1363,6837,021.8,045.1,0.129,767.9,01.15,0.508
2014-02-28 00:29:00,5571E-2,5C000490,-0724,1364,6916,021.9,045.1,0.129,767.9,01.15,0.508
2014-02-28 00:30:00,5525E-2,5C000490,-0724,1365,6893,021.9,045.1,0.129,768.0,01.15,0.508
2014-02-28 00:31:00,5545E-2,5C000490,-0724,1365,6842,021.9,045.1,0.129,768.0,01.15,0.508
2014-02-28 00:32:00,5554E-2,5C000490,-0724,1365,6924,021.9,045.1,0.129,767.9,01.15,0.508
2014-02-28 00:33:00,5544E-2,5C000490,-0724,1366,6828,021.9,045.1,0.129,767.9,01.15,0.508
2014-02-28 00:34:00,5479E-2,5C000490,-0724,1366,6860,021.9,045.1,0.129,768.0,01.15,0.508
2014-02-28 00:35:00,5523E-2,5C000490,-0724,1367,6784,021.9,045.1,0.129,767.9,01.15,0.508
2014-02-28 00:36:00,5560E-2,5C000490,-0724,1367,6712,021.9,045.1,0.129,767.9,01.15,0.508
2014-02-28 00:37:00,5636E-2,5C000490,-0724,1371,6747,021.9,045.1,0.129,767.9,01.15,0.508
2014-02-28 00:38:00,5639E-2,5C000490,-0724,1372,6732,021.9,045.1,0.129,767.9,01.15,0.508
2014-02-28 00:39:00,5601E-2,5C000490,-0724,1372,6572,021.9,045.1,0.129,767.9,01.15,0.508
2014-02-28 00:40:00,5657E-2,5C000490,-0724,1373,6606,021.9,045.1,0.129,767.9,01.15,0.508
2014-02-28 00:41:00,5572E-2,5C000490,-0724,1373,6614,021.9,045.1,0.129,767.8,01.15,0.508
2014-02-28 00:42:00,5582E-2,5C000490,-0724,1373,6646,021.9,045.0,0.129,767.8,01.15,0.508
2014-02-28 00:43:00,5585E-2,5C000490,-0724,1373,6600,021.9,045.1,0.129,767.9,01.15,0.508
2014-02-28 00:44:00,5579E-2,5C000490,-0724,1373,6631,021.9,045.1,0.129,767.9,01.15,0.508
2014-02-28 00:45:00,5592E-2,5C000490,-0724,1373,6660,021.9,045.1,0.129,767.9,01.15,0.508
2014-02-28 00:46:00,5553E-2,5C000490,-0724,1374,6568,021.9,045.1,0.129,767.9,01.15,0.508
2014-02-28 00:47:00,5649E-2,5C000490,-0724,1374,6594,021.9,045.1,0.129,767.9,01.15,0.508
2014-02-28 00:48:00,5593E-2,5C000490,-0724,1374,6572,021.9,045.1,0.129,767.8,01.15,0.508
2014-02-28 00:49:00,5602E-2,5C000490,-0724,1374,6549,021.9,045.1,0.129,767.9,01.15,0.508
2014-02-28 00:50:00,5574E-2,5C000490,-0724,1374,6482,021.9,045.1,0.129,767.9,01.15,0.508
2014-02-28 00:51:00,5585E-2,5C000490,-0724,1374,6531,021.9,045.1,0.129,767.7,01.15,0.508
2014-02-28 00:52:00,5605E-2,5C000490,-0724,1374,6475,021.9,045.1,0.129,767.8,01.15,0.508
2014-02-28 00:53:00,5615E-2,5C000490,-0724,1374,6518,021.9,045.1,0.129,767.8,01.15,0.508
2014-02-28 00:54:00,5633E-2,5C000490,-0724,1374,6500,022.0,045.1,0.129,767.8,01.15,0.508
2014-02-28 00:55:00,5638E-2,5C000490,-0724,1374,6444,022.0,045.1,0.129,767.8,01.15,0.508
2014-02-28 00:56:00,5621E-2,5C000490,-0724,1374,6446,021.9,045.1,0.129,767.8,01.15,0.508
2014-02-28 00:57:00,5680E-2,5C000490,-0724,1375,6443,022.0,045.1,0.129,767.8,01.15,0.508
2014-02-28 00:58:00,5629E-2,5C000490,-0724,1375,6444,022.0,045.1,0.129,767.8,01.15,0.508
2014-02-28 00:59:00,5633E-2,5C000490,-0724,1375,6437,022.0,045.1,0.129,767.7,01.15,0.508
2014-02-28 01:00:00,5625E-2,5C000490,-0724,1375,6432,022.0,045.1,0.129,767.7,01.15,0.508
2014-02-28 01:01:00,5606E-2,5C000490,-0724,1375,6464,022.0,045.1,0.129,767.7,01.15,0.508
2014-02-28 01:02:00,5621E-2,5C000490,-0724,1375,6430,022.0,045.1,0.129,767.8,01.15,0.508
2014-02-28 01:03:00,5629E-2,5C000490,-0724,1375,6406,022.0,045.1,0.129,767.8,01.15,0.508
2014-02-28 01:04:00,5693E-2,5C000490,-0724,1375,6421,022.0,045.1,0.129,767.7,01.15,0.508
2014-02-28 01:05:00,5676E-2,5C000490,-0724,1375,6444,022.0,045.1,0.129,767.8,01.15,0.508
2014-02-28 01:06:00,5647E-2,5C000490,-0724,1375,6348,022.0,045.1,0.129,767.8,01.15,0.508
2014-02-28 01:07:00,5684E-2,5C000490,-0724,1375,6424,022.0,045.1,0.129,767.7,01.15,0.508
2014-02-28 01:08:00,5629E-2,5C000490,-0724,1375,6420,022.0,045.1,0.129,767.7,01.15,0.508
2014-02-28 01:09:00,5652E-2,5C000490,-0724,1375,6398,022.0,045.1,0.129,767.7,01.15,0.508
2014-02-28 01:10:00,5654E-2,5C000490,-0724,1375,6386,022.0,045.1,0.129,767.7,01.15,0.508
2014-02-28 01:11:00,5617E-2,5C000490,-0724,1375,6343,022.0,045.1,0.129,767.7,01.15,0.508
2014-02-28 01:12:00,5622E-2,5C000490,-0724,1375,6383,022.0,045.1,0.129,767.7,01.15,0.508
2014-02-28 01:13:00,5676E-2,5C000490,-0724,1375,6361,022.0,045.1,0.129,767.7,01.15,0.508
2014-02-28 01:14:00,5644E-2,5C000490,-0724,1375,6312,022.0,045.1,0.129,767.7,01.15,0.508
2014-02-28 01:15:00,5617E-2,5C000490,-0724,1375,6438,022.0,045.1,0.129,767.7,01.15,0.508
2014-02-28 01:16:00,5599E-2,5C000490,-0724,1375,6339,022.0,045.1,0.129,767.8,01.15,0.508
2014-02-28 01:17:00,5596E-2,5C000490,-0724,1375,6283,022.0,045.1,0.129,767.7,01.15,0.508
2014-02-28 01:18:00,5706E-2,5C000490,-0724,1375,6300,022.1,045.1,0.129,767.7,01.15,0.508
2014-02-28 01:19:00,5754E-2,5C000490,-0724,1375,6309,022.1,045.1,0.129,767.7,01.15,0.508
2014-02-28 01:20:00,5755E-2,5C000490,-0724,1375,6314,022.1,045.1,0.129,767.8,01.15,0.508
2014-02-28 01:21:00,5795E-2,5C000490,-0724,1375,6334,022.1,045.1,0.129,767.7,01.15,0.508
2014-02-28 01:22:00,5855E-2,5C000490,-0724,1374,6583,022.1,045.1,0.129,767.7,01.15,0.508
2014-02-28 01:23:00,5916E-2,5C000490,-0724,1374,6606,022.1,045.1,0.129,767.7,01.15,0.508
2014-02-28 01:24:00,5968E-2,5C000490,-0724,1374,6503,022.1,045.1,0.129,767.7,01.15,0.508
2014-02-28 01:25:00,5974E-2,5C000490,-0724,1374,6591,022.1,045.1,0.129,767.7,01.15,0.508
2014-02-28 01:26:00,5855E-2,5C000490,-0724,1374,6639,022.1,045.1,0.129,767.7,01.15,0.508
2014-02-28 01:27:00,5899E-2,5C000490,-0724,1374,6554,022.1,045.1,0.129,767.7,01.15,0.508
2014-02-28 01:28:00,5881E-2,5C000490,-0724,1374,6596,022.1,045.1,0.129,767.8,01.15,0.508
2014-02-28 01:29:00,5919E-2,5C000490,-0724,1374,6502,022.1,045.1,0.129,767.8,01.15,0.508
2014-02-28 01:30:00,5916E-2,5C000490,-0724,1374,6565,022.1,045.1,0.129,767.7,01.15,0.508
2014-02-28 01:31:00,5950E-2,5C000490,-0724,1374,6454,022.1,045.1,0.129,767.7,01.15,0.508
2014-02-28 01:32:00,5910E-2,5C000490,-0724,1374,6496,022.1,045.1,0.129,767.7,01.15,0.508
2014-02-28 01:33:00,5871E-2,5C000490,-0724,1374,6494,022.1,045.1,0.129,767.7,01.15,0.508
2014-02-28 01:34:00,5909E-2,5C000490,-0724,1374,6476,022.1,045.1,0.128,767.7,01.15,0.508
2014-02-28 01:35:00,5977E-2,5C000490,-0724,1374,6552,022.1,045.1,0.128,767.6,01.15,0.508
2014-02-28 01:36:00,5968E-2,5C000490,-0724,1374,6500,022.1,045.1,0.128,767.7,01.15,0.508
2014-02-28 01:37:00,5809E-2,5C000490,-0724,1374,6458,022.1,045.1,0.129,767.7,01.15,0.508
2014-02-28 01:38:00,5869E-2,5C000490,-0724,1374,6464,022.1,045.1,0.128,767.7,01.15,0.508
2014-02-28 01:39:00,5916E-2,5C000490,-0724,1375,6469,022.1,045.1,0.128,767.7,01.15,0.508
2014-02-28 01:40:00,5914E-2,5C000490,-0724,1375,6407,022.1,045.1,0.128,767.7,01.15,0.508
2014-02-28 01:41:00,5856E-2,5C000490,-0724,1375,6382,022.1,045.1,0.128,767.7,01.15,0.508
2014-02-28 01:42:00,5916E-2,5C000490,-0724,1375,6345,022.1,045.1,0.128,767.7,01.15,0.508
2014-02-28 01:43:00,5935E-2,5C000490,-0724,1375,6449,022.1,045.1,0.128,767.7,01.15,0.508
2014-02-28 01:44:00,5932E-2,5C000490,-0724,1375,6227,022.1,045.1,0.128,767.6,01.15,0.508
2014-02-28 01:45:00,5939E-2,5C000490,-0724,1375,6406,022.1,045.1,0.128,767.7,01.15,0.508
2014-02-28 01:46:00,5925E-2,5C000490,-0724,1375,6467,022.2,045.1,0.128,767.8,01.15,0.508
2014-02-28 01:47:00,5899E-2,5C000490,-0724,1375,6252,022.1,045.1,0.128,767.7,01.15,0.508
2014-02-28 01:48:00,5889E-2,5C000490,-0724,1375,6292,022.1,045.1,0.128,767.7,01.15,0.508
2014-02-28 01:49:00,5912E-2,5C000490,-0724,1375,6339,022.1,045.1,0.128,767.7,01.15,0.508
2014-02-28 01:50:00,5929E-2,5C000490,-0724,1375,6334,022.2,045.1,0.128,767.7,01.15,0.508
2014-02-28 01:51:00,5921E-2,5C000490,-0724,1375,6326,022.2,045.1,0.128,767.7,01.15,0.508
2014-02-28 01:52:00,5824E-2,5C000490,-0724,1375,6309,022.2,045.1,0.128,767.7,01.15,0.508
2014-02-28 01:53:00,5882E-2,5C000490,-0724,1375,6196,022.2,045.1,0.128,767.7,01.15,0.508
2014-02-28 01:54:00,5863E-2,5C000490,-0724,1375,6262,022.2,045.1,0.128,767.7,01.15,0.508
2014-02-28 01:55:00,5905E-2,5C000490,-0724,1375,6359,022.2,045.1,0.128,767.7,01.15,0.508
2014-02-28 01:56:00,5824E-2,5C000490,-0724,1375,6324,022.2,045.1,0.128,767.7,01.15,0.508
2014-02-28 01:57:00,5862E-2,5C000490,-0724,1375,6316,022.2,045.1,0.128,767.7,01.15,0.508
2014-02-28 01:58:00,5803E-2,5C000490,-0724,1375,6330,022.2,045.1,0.128,767.7,01.15,0.508
2014-02-28 01:59:00,5876E-2,5C000490,-0724,1375,6333,022.2,045.1,0.128,767.7,01.15,0.508
2014-02-28 02:00:00,5914E-2,5C000490,-0724,1375,6212,022.2,045.1,0.128,767.7,01.15,0.508
2014-02-28 02:01:00,5845E-2,5C000490,-0724,1375,6236,022.2,045.1,0.128,767.7,01.15,0.508
2014-02-28 02:02:00,5914E-2,5C000490,-0724,1375,6265,022.2,045.1,0.128,767.7,01.15,0.508
2014-02-28 02:03:00,5822E-2,5C000490,-0724,1375,6231,022.2,045.1,0.128,767.7,01.15,0.508
2014-02-28 02:04:00,5865E-2,5C000490,-0724,1375,6249,022.2,045.1,0.128,767.7,01.15,0.508
2014-02-28 02:05:00,5916E-2,5C000490,-0724,1375,6200,022.2,045.1,0.128,767.7,01.15,0.508
2014-02-28 02:06:00,5909E-2,5C000490,-0724,1375,6224,022.2,045.1,0.128,767.7,01.15,0.508
2014-02-28 02:07:00,5888E-2,5C000490,-0724,1375,6159,022.2,045.1,0.128,767.7,01.15,0.508
2014-02-28 02:08:00,5798E-2,5C000490,-0724,1375,6206,022.2,045.1,0.128,767.8,01.15,0.508
2014-02-28 02:09:00,5879E-2,5C000490,-0724,1375,6230,022.2,045.1,0.128,767.7,01.15,0.508
2014-02-28 02:10:00,5867E-2,5C000490,-0724,1375,6106,022.3,045.1,0.128,767.8,01.15,0.508
2014-02-28 02:11:00,5846E-2,5C000490,-0724,1375,6133,022.3,045.1,0.128,767.7,01.15,0.508
2014-02-28 02:12:00,5835E-2,5C000490,-0724,1375,6111,022.3,045.1,0.128,767.7,01.15,0.508
2014-02-28 02:13:00,5820E-2,5C000490,-0724,1375,6136,022.3,045.1,0.128,767.7,01.15,0.508
2014-02-28 02:14:00,5829E-2,5C000490,-0724,1375,6134,022.3,045.1,0.128,767.7,01.15,0.508
2014-02-28 02:15:00,5838E-2,5C000490,-0724,1375,6116,022.3,045.1,0.128,767.7,01.15,0.508
2014-02-28 02:16:00,5835E-2,5C000490,-0724,1375,6102,022.3,045.1,0.128,767.7,01.15,0.508
2014-02-28 02:17:00,5822E-2,5C000490,-0724,1375,6099,022.3,045.1,0.128,767.7,01.15,0.508
2014-02-28 02:18:00,5822E-2,5C000490,-0724,1375,6304,022.3,045.1,0.128,767.7,01.15,0.508
2014-02-28 02:19:00,5792E-2,5C000490,-0724,1375,6297,022.3,045.1,0.128,767.6,01.15,0.508
2014-02-28 02:20:00,5860E-2,5C000490,-0724,1375,6238,022.3,045.1,0.128,767.7,01.15,0.508
2014-02-28 02:21:00,5817E-2,5C000490,-0724,1375,6231,022.3,045.1,0.128,767.8,01.15,0.508
2014-02-28 02:22:00,5850E-2,5C000490,-0724,1375,6289,022.3,045.1,0.128,767.7,01.15,0.508
2014-02-28 02:23:00,5784E-2,5C000490,-0724,1375,6327,022.3,045.1,0.128,767.5,01.15,0.508
2014-02-28 02:24:00,5841E-2,5C000490,-0724,1375,6247,022.3,045.1,0.128,767.7,01.15,0.508
2014-02-28 02:25:00,5783E-2,5C000490,-0724,1375,6304,022.4,045.1,0.128,767.7,01.15,0.508
2014-02-28 02:26:00,5783E-2,5C000490,-0724,1375,6283,022.3,045.1,0.128,767.8,01.15,0.508
2014-02-28 02:27:00,5729E-2,5C000490,-0724,1375,6289,022.3,045.1,0.128,767.8,01.15,0.508
2014-02-28 02:28:00,5746E-2,5C000490,-0724,1375,6293,022.4,045.1,0.128,767.8,01.15,0.508
2014-02-28 02:29:00,5845E-2,5C000490,-0724,1375,6303,022.4,045.1,0.128,768.0,01.15,0.508
2014-02-28 02:30:00,5792E-2,5C000490,-0724,1375,6349,022.4,045.1,0.127,768.0,01.15,0.508
2014-02-28 02:31:00,5816E-2,5C000490,-0724,1375,6390,022.4,045.1,0.127,767.9,01.15,0.508
2014-02-28 02:32:00,5766E-2,5C000490,-0724,1375,6485,022.4,045.1,0.127,767.9,01.15,0.508
2014-02-28 02:33:00,5739E-2,5C000490,-0724,1375,6363,022.4,045.1,0.127,768.0,01.15,0.508
2014-02-28 02:34:00,5754E-2,5C000490,-0724,1375,6301,022.4,045.1,0.127,768.0,01.15,0.508
2014-02-28 02:35:00,5756E-2,5C000490,-0724,1375,6380,022.4,045.1,0.127,768.0,01.15,0.508
2014-02-28 02:36:00,5749E-2,5C000490,-0724,1375,6388,022.4,045.1,0.127,767.9,01.15,0.508
2014-02-28 02:37:00,5718E-2,5C000490,-0724,1375,6407,022.4,045.1,0.127,768.0,01.15,0.508
2014-02-28 02:38:00,5723E-2,5C000490,-0724,1375,6449,022.4,045.1,0.127,768.0,01.15,0.508
2014-02-28 02:39:00,5719E-2,5C000490,-0724,1375,6385,022.4,045.1,0.127,768.0,01.15,0.508
2014-02-28 02:40:00,5700E-2,5C000490,-0724,1375,6350,022.4,045.1,0.127,767.9,01.15,0.508
2014-02-28 02:41:00,5728E-2,5C000490,-0724,1375,6314,022.4,045.1,0.127,768.0,01.15,0.508
2014-02-28 02:42:00,5692E-2,5C000490,-0724,1375,6283,022.4,045.1,0.127,767.9,01.15,0.508
2014-02-28 02:43:00,5723E-2,5C000490,-0724,1375,6328,022.4,045.1,0.127,767.9,01.15,0.508
2014-02-28 02:44:00,5721E-2,5C000490,-0724,1375,6370,022.4,045.1,0.127,767.9,01.15,0.508
2014-02-28 02:45:00,5709E-2,5C000490,-0724,1375,6376,022.4,045.1,0.127,767.9,01.15,0.508
2014-02-28 02:46:00,5694E-2,5C000490,-0724,1375,6405,022.5,045.1,0.127,767.9,01.15,0.508
2014-02-28 02:47:00,5696E-2,5C000490,-0724,1375,6411,022.5,045.1,0.127,767.9,01.15,0.508
2014-02-28 02:48:00,5719E-2,5C000490,-0724,1375,6436,022.5,045.1,0.127,767.8,01.15,0.508
2014-02-28 02:49:00,5749E-2,5C000490,-0724,1375,6396,022.5,045.1,0.127,767.8,01.15,0.508
2014-02-28 02:50:00,5728E-2,5C000490,-0724,1375,6352,022.5,045.1,0.127,767.8,01.15,0.508
2014-02-28 02:51:00,5763E-2,5C000490,-0724,1375,6427,022.5,045.1,0.127,767.8,01.15,0.508
2014-02-28 02:52:00,5764E-2,5C000490,-0724,1375,6354,022.5,045.1,0.127,767.8,01.15,0.508
2014-02-28 02:53:00,5730E-2,5C000490,-0724,1375,6313,022.5,045.1,0.127,767.8,01.15,0.508
2014-02-28 02:54:00,5622E-2,5C000490,-0724,1375,6367,022.5,045.1,0.127,767.8,01.15,0.508
2014-02-28 02:55:00,5598E-2,5C000490,-0724,1375,6360,022.5,045.1,0.127,767.8,01.15,0.508
2014-02-28 02:56:00,5613E-2,5C000490,-0724,1375,6369,022.5,045.1,0.127,767.8,01.15,0.508
2014-02-28 02:57:00,5617E-2,5C000490,-0724,1375,6331,022.5,045.1,0.127,767.7,01.15,0.508
2014-02-28 02:58:00,5639E-2,5C000490,-0724,1375,6434,022.5,045.1,0.127,767.7,01.15,0.508
2014-02-28 02:59:00,5634E-2,5C000490,-0724,1375,6290,022.5,045.1,0.127,767.8,01.15,0.508
2014-02-28 03:00:00,5602E-2,5C000490,-0724,1375,6363,022.5,045.1,0.127,767.7,01.15,0.508
2014-02-28 03:01:00,5624E-2,5C000490,-0724,1375,6432,022.5,045.1,0.127,767.7,01.15,0.508
2014-02-28 03:02:00,5649E-2,5C000490,-0724,1375,6326,022.5,045.1,0.127,767.7,01.15,0.508
2014-02-28 03:03:00,5587E-2,5C000490,-0724,1375,6435,022.5,045.1,0.127,767.7,01.15,0.508
2014-02-28 03:04:00,5587E-2,5C000490,-0724,1375,6318,022.5,045.1,0.127,767.8,01.15,0.508
2014-02-28 03:05:00,5641E-2,5C000490,-0724,1375,6376,022.5,045.1,0.127,767.7,01.15,0.508
2014-02-28 03:06:00,5638E-2,5C000490,-0724,1375,6333,022.5,045.1,0.127,767.7,01.15,0.508
2014-02-28 03:07:00,5606E-2,5C000490,-0724,1375,6280,022.5,045.1,0.127,767.7,01.15,0.508
2014-02-28 03:08:00,5622E-2,5C000490,-0724,1375,6289,022.6,045.1,0.127,767.7,01.15,0.508
2014-02-28 03:09:00,5605E-2,5C000490,-0724,1375,6235,022.6,045.1,0.127,767.7,01.15,0.508
2014-02-28 03:10:00,5607E-2,5C000490,-0724,1375,6206,022.6,045.1,0.127,767.7,01.15,0.508
2014-02-28 03:11:00,5650E-2,5C000490,-0724,1375,6306,022.6,045.1,0.127,767.8,01.15,0.508
2014-02-28 03:12:00,5602E-2,5C000490,-0724,1375,6250,022.6,045.1,0.127,767.7,01.15,0.508
2014-02-28 03:13:00,5514E-2,5C000490,-0724,1375,6246,022.6,045.1,0.127,767.7,01.15,0.508
2014-02-28 03:14:00,5610E-2,5C000490,-0724,1375,6254,022.6,045.1,0.127,767.7,01.15,0.508
2014-02-28 03:15:00,5553E-2,5C000490,-0724,1375,6334,022.6,045.1,0.127,767.7,01.15,0.508
2014-02-28 03:16:00,5525E-2,5C000490,-0724,1375,6339,022.6,045.1,0.127,767.7,01.15,0.508
2014-02-28 03:17:00,5721E-2,5C000490,-0724,1375,6333,022.7,045.1,0.127,767.6,01.15,0.508
2014-02-28 03:18:00,5742E-2,5C000490,-0724,1375,6195,022.6,045.1,0.127,767.6,01.15,0.508
2014-02-28 03:19:00,5726E-2,5C000490,-0724,1375,6405,022.6,045.1,0.126,767.7,01.15,0.508
2014-02-28 03:20:00,5687E-2,5C000490,-0724,1375,6255,022.7,045.1,0.126,767.5,01.15,0.508
2014-02-28 03:21:00,5754E-2,5C000490,-0724,1375,6349,022.7,045.1,0.126,767.5,01.15,0.508
2014-02-28 03:22:00,5724E-2,5C000490,-0724,1375,6343,022.7,045.1,0.126,767.6,01.15,0.508
2014-02-28 03:23:00,5652E-2,5C000490,-0724,1375,6388,022.7,045.1,0.126,767.7,01.15,0.508
2014-02-28 03:24:00,5691E-2,5C000490,-0724,1375,6307,022.7,045.2,0.126,767.5,01.15,0.508
2014-02-28 03:25:00,5670E-2,5C000490,-0724,1375,6412,022.7,045.1,0.126,767.5,01.15,0.508
2014-02-28 03:26:00,5682E-2,5C000490,-0724,1375,6409,022.7,045.1,0.126,767.5,01.15,0.508
2014-02-28 03:27:00,5643E-2,5C000490,-0724,1375,6403,022.7,045.1,0.126,767.5,01.15,0.508
2014-02-28 03:28:00,5710E-2,5C000490,-0724,1375,6344,022.7,045.1,0.126,767.5,01.15,0.508
2014-02-28 03:29:00,5689E-2,5C000490,-0724,1375,6360,022.7,045.1,0.126,767.6,01.15,0.508
2014-02-28 03:30:00,5654E-2,5C000490,-0724,1375,6322,022.8,045.1,0.126,767.6,01.15,0.508
2014-02-28 03:31:00,5709E-2,5C000490,-0724,1375,6278,022.8,045.1,0.126,767.5,01.15,0.508
2014-02-28 03:32:00,5662E-2,5C000490,-0724,1375,6356,022.8,045.1,0.126,767.6,01.15,0.508
2014-02-28 03:33:00,5761E-2,5C000490,-0724,1375,6268,022.8,045.1,0.126,767.5,01.15,0.508
2014-02-28 03:34:00,5624E-2,5C000490,-0724,1375,6238,022.8,045.1,0.126,767.5,01.15,0.508
2014-02-28 03:35:00,5638E-2,5C000490,-0724,1375,6370,022.8,045.1,0.126,767.5,01.15,0.508
2014-02-28 03:36:00,5648E-2,5C000490,-0724,1375,6351,022.8,045.1,0.126,767.6,01.15,0.508
2014-02-28 03:37:00,5579E-2,5C000490,-0724,1375,6330,022.8,045.2,0.126,767.5,01.15,0.508
2014-02-28 03:38:00,5590E-2,5C000490,-0724,1375,6269,022.8,045.1,0.126,767.5,01.15,0.508
2014-02-28 03:39:00,5580E-2,5C000490,-0724,1375,6246,022.9,045.2,0.126,767.5,01.15,0.508
2014-02-28 03:40:00,5611E-2,5C000490,-0724,1375,6256,022.9,045.1,0.126,767.5,01.15,0.508
2014-02-28 03:41:00,5603E-2,5C000490,-0724,1375,6272,022.9,045.1,0.126,767.5,01.15,0.508
2014-02-28 03:42:00,5597E-2,5C000490,-0724,1375,6250,022.9,045.1,0.126,767.5,01.15,0.508
2014-02-28 03:43:00,5631E-2,5C000490,-0724,1375,6264,022.9,045.1,0.126,767.5,01.15,0.508
2014-02-28 03:44:00,5566E-2,5C000490,-0724,1375,6270,022.9,045.1,0.126,767.5,01.15,0.508
2014-02-28 03:45:00,5569E-2,5C000490,-0724,1375,6265,022.9,045.1,0.126,767.5,01.15,0.508
2014-02-28 03:46:00,5640E-2,5C000490,-0724,1375,6167,022.9,045.1,0.126,767.5,01.15,0.508
2014-02-28 03:47:00,5619E-2,5C000490,-0724,1375,6235,022.9,045.1,0.126,767.5,01.15,0.508
2014-02-28 03:48:00,5578E-2,5C000490,-0724,1375,6238,022.9,045.2,0.125,767.6,01.15,0.508
2014-02-28 03:49:00,5570E-2,5C000490,-0724,1375,6213,022.9,045.2,0.126,767.5,01.15,0.508
2014-02-28 03:50:00,5591E-2,5C000490,-0724,1375,6214,022.9,045.1,0.126,767.5,01.15,0.508
2014-02-28 03:51:00,5516E-2,5C000490,-0724,1375,6155,022.9,045.1,0.126,767.6,01.15,0.508
2014-02-28 03:52:00,5597E-2,5C000490,-0724,1375,6235,022.9,045.1,0.125,767.5,01.15,0.508
2014-02-28 03:53:00,5572E-2,5C000490,-0724,1375,6213,023.0,045.1,0.125,767.5,01.15,0.508
2014-02-28 03:54:00,5499E-2,5C000490,-0724,1375,6130,023.0,045.2,0.125,767.5,01.15,0.508
2014-02-28 03:55:00,5562E-2,5C000490,-0724,1375,6153,023.0,045.2,0.125,767.6,01.15,0.508
2014-02-28 03:56:00,5632E-2,5C000490,-0724,1375,6118,023.0,045.1,0.125,767.5,01.15,0.508
2014-02-28 03:57:00,5565E-2,5C000490,-0724,1375,6149,023.0,045.1,0.125,767.4,01.15,0.508
2014-02-28 03:58:00,5538E-2,5C000490,-0724,1375,6196,023.0,045.1,0.125,767.5,01.15,0.508
2014-02-28 03:59:00,5522E-2,5C000490,-0724,1375,6192,023.0,045.2,0.125,767.5,01.15,0.508
2014-02-28 04:00:00,5506E-2,5C000490,-0724,1375,6212,023.0,045.1,0.125,767.5,01.15,0.508
2014-02-28 04:01:00,5470E-2,5C000490,-0724,1375,6106,023.0,045.1,0.125,767.5,01.15,0.508
2014-02-28 04:02:00,5542E-2,5C000490,-0724,1375,6224,023.0,045.1,0.125,767.5,01.15,0.508
2014-02-28 04:03:00,5419E-2,5C000490,-0724,1375,6209,023.0,045.1,0.125,767.4,01.15,0.508
2014-02-28 04:04:00,5362E-2,5C000490,-0724,1375,6176,023.0,045.1,0.125,767.5,01.15,0.508
2014-02-28 04:05:00,5358E-2,5C000490,-0724,1375,6161,023.1,045.2,0.125,767.5,01.15,0.508
2014-02-28 04:06:00,5355E-2,5C000490,-0724,1375,6191,023.1,045.1,0.125,767.5,01.15,0.508
2014-02-28 04:07:00,5367E-2,5C000490,-0724,1375,6111,023.1,045.1,0.125,767.5,01.15,0.508
2014-02-28 04:08:00,5363E-2,5C000490,-0724,1375,6122,023.1,045.1,0.125,767.5,01.15,0.508
2014-02-28 04:09:00,5379E-2,5C000490,-0724,1375,6096,023.1,045.1,0.125,767.5,01.15,0.508
2014-02-28 04:10:00,5349E-2,5C000490,-0724,1375,6136,023.1,045.1,0.125,767.5,01.15,0.508
2014-02-28 04:11:00,5341E-2,5C000490,-0724,1375,6183,023.1,045.1,0.125,767.5,01.15,0.508
2014-02-28 04:12:00,5405E-2,5C000490,-0724,1375,6108,023.1,045.1,0.125,767.5,01.15,0.508
2014-02-28 04:13:00,5350E-2,5C000490,-0724,1375,6109,023.1,045.1,0.125,767.4,01.15,0.508
2014-02-28 04:14:00,5361E-2,5C000490,-0724,1375,6107,023.1,045.1,0.125,767.4,01.15,0.508
2014-02-28 04:15:00,5350E-2,5C000490,-0724,1375,6020,023.1,045.1,0.125,767.4,01.15,0.508
2014-02-28 04:16:00,5374E-2,5C000490,-0724,1375,6116,023.2,045.2,0.124,767.5,01.15,0.508
2014-02-28 04:17:00,5358E-2,5C000490,-0724,1375,6037,023.2,045.2,0.125,767.5,01.15,0.508
2014-02-28 04:18:00,5337E-2,5C000490,-0724,1375,6062,023.2,045.2,0.124,767.4,01.15,0.508
2014-02-28 04:19:00,5333E-2,5C000490,-0724,1375,6115,023.2,045.2,0.125,767.4,01.15,0.508
2014-02-28 04:20:00,5346E-2,5C000490,-0724,1375,6034,023.2,045.2,0.124,767.4,01.15,0.508
2014-02-28 04:21:00,5294E-2,5C000490,-0724,1375,6051,023.2,045.1,0.124,767.4,01.15,0.508
2014-02-28 04:22:00,5315E-2,5C000490,-0724,1375,5951,023.2,045.1,0.124,767.3,01.15,0.508
2014-02-28 04:23:00,5286E-2,5C000490,-0724,1375,6083,023.2,045.1,0.124,767.4,01.15,0.508